Вернуться в каталог

SL-16 DEB

АктивенLEO
NORAD 22432·DEBRIS·🇷🇺 Russia

Запущен Dec 25, 1992 с Baikonur Cosmodrome

Loading…

Ближайшие Пролёты (ближайшие 24 часа)

TLE

СвежийSource: Space-Track

Эпоха: Sep 14, 2026, 03:09 UTC

1 22432U 92093DZ  26257.13191294  .00000616  00000-0  37720-3 0  9993
2 22432  70.8321  59.1001 0099634 215.4490 265.4519 14.07434474718396

Отслеживайте SL-16 DEB в реальном времени с AllMySat

Download on the App Store